PDT6022 KART-KPHL

Flight info

Callsign PDT6022
Flight time 0h 51m
Altitude 34000
Route SYR CFB SPUDS7
Aircraft E145/M-SABDFGRW/S

Departure

Time 2026-05-05 23:46
Airport Watertown International Airport (KART)

Arrival

Time 2026-05-06 00:37
Airport Philadelphia International Airport (KPHL)
Time Latitude Longitude Altitude Speed Heading
2026-05-05 23:10 43.99373 -76.02364 318 ft 0 kts 93°
2026-05-05 23:38 43.99373 -76.02363 318 ft 0 kts 93°
2026-05-05 23:38 43.99369 -76.02354 318 ft 2 kts 137°
2026-05-05 23:38 43.99328 -76.02350 318 ft 7 kts 163°
2026-05-05 23:38 43.99309 -76.02284 319 ft 8 kts 98°
2026-05-05 23:39 43.99305 -76.02200 320 ft 9 kts 91°
2026-05-05 23:39 43.99301 -76.02101 321 ft 10 kts 94°
2026-05-05 23:39 43.99296 -76.01992 322 ft 12 kts 93°
2026-05-05 23:39 43.99292 -76.01867 322 ft 13 kts 93°
2026-05-05 23:40 43.99287 -76.01726 323 ft 15 kts 92°
2026-05-05 23:40 43.99282 -76.01570 324 ft 16 kts 92°
2026-05-05 23:40 43.99275 -76.01404 325 ft 18 kts 93°
2026-05-05 23:40 43.99268 -76.01223 326 ft 19 kts 93°
2026-05-05 23:41 43.99261 -76.01028 327 ft 20 kts 92°
2026-05-05 23:41 43.99254 -76.00860 328 ft 16 kts 93°
2026-05-05 23:41 43.99248 -76.00691 329 ft 18 kts 93°
2026-05-05 23:41 43.99242 -76.00512 331 ft 15 kts 92°
2026-05-05 23:42 43.99224 -76.00417 332 ft 6 kts 146°
2026-05-05 23:42 43.99214 -76.00414 332 ft 0 kts 179°
2026-05-05 23:43 43.99212 -76.00414 332 ft 1 kts 179°
2026-05-05 23:44 43.99197 -76.00414 332 ft 3 kts 180°
2026-05-05 23:44 43.99166 -76.00415 332 ft 5 kts 182°
2026-05-05 23:44 43.99128 -76.00443 331 ft 7 kts 264°
2026-05-05 23:44 43.99134 -76.00555 330 ft 0 kts 274°
2026-05-05 23:45 43.99135 -76.00577 330 ft 13 kts 273°
2026-05-05 23:45 43.99151 -76.01093 327 ft 92 kts 272°
2026-05-05 23:45 43.99197 -76.02316 360 ft 144 kts 272°
2026-05-05 23:45 43.99223 -76.03788 827 ft 158 kts 269°
2026-05-05 23:46 43.98846 -76.05240 1340 ft 181 kts 233°
2026-05-05 23:46 43.97670 -76.06218 1755 ft 213 kts 202°
2026-05-05 23:46 43.96239 -76.06680 2625 ft 213 kts 196°
2026-05-05 23:46 43.94672 -76.07038 2856 ft 249 kts 193°
2026-05-05 23:47 43.92868 -76.07366 3521 ft 267 kts 192°
2026-05-05 23:47 43.91113 -76.07669 5060 ft 248 kts 193°
2026-05-05 23:47 43.89498 -76.07948 6330 ft 231 kts 194°
2026-05-05 23:47 43.87896 -76.08228 7031 ft 236 kts 194°
2026-05-05 23:48 43.86253 -76.08511 7733 ft 242 kts 194°
2026-05-05 23:48 43.84571 -76.08800 8530 ft 243 kts 194°
2026-05-05 23:48 43.82868 -76.09094 9286 ft 244 kts 194°
2026-05-05 23:48 43.81187 -76.09382 10066 ft 244 kts 194°
2026-05-05 23:49 43.79488 -76.09675 10760 ft 247 kts 194°
2026-05-05 23:49 43.77765 -76.09971 11370 ft 252 kts 194°
2026-05-05 23:49 43.76014 -76.10271 12018 ft 255 kts 195°
2026-05-05 23:49 43.74227 -76.10577 12635 ft 258 kts 195°
2026-05-05 23:50 43.72410 -76.10889 13219 ft 264 kts 195°
2026-05-05 23:50 43.70505 -76.11220 13236 ft 288 kts 194°
2026-05-05 23:50 43.68422 -76.11574 13534 ft 301 kts 194°
2026-05-05 23:50 43.66336 -76.11928 14184 ft 300 kts 194°
2026-05-05 23:51 43.64249 -76.12286 14808 ft 300 kts 194°
2026-05-05 23:51 43.62145 -76.12644 15306 ft 304 kts 195°
2026-05-05 23:51 43.60021 -76.13008 15847 ft 306 kts 194°
2026-05-05 23:51 43.57877 -76.13373 16382 ft 308 kts 195°
2026-05-05 23:52 43.55731 -76.13739 16941 ft 308 kts 194°
2026-05-05 23:52 43.53572 -76.14107 17450 ft 310 kts 194°
2026-05-05 23:52 43.51395 -76.14477 17926 ft 313 kts 194°
2026-05-05 23:52 43.49191 -76.14852 18365 ft 316 kts 194°
2026-05-05 23:53 43.46991 -76.15227 18814 ft 318 kts 194°
2026-05-05 23:53 43.44756 -76.15606 19211 ft 322 kts 194°
2026-05-05 23:53 43.42477 -76.15993 19581 ft 326 kts 194°
2026-05-05 23:53 43.40173 -76.16383 20001 ft 329 kts 194°
2026-05-05 23:54 43.37885 -76.16772 20403 ft 331 kts 194°
2026-05-05 23:54 43.35578 -76.17161 20837 ft 333 kts 194°
2026-05-05 23:54 43.33199 -76.17564 21192 ft 336 kts 194°
2026-05-05 23:54 43.30849 -76.17962 21589 ft 338 kts 194°
2026-05-05 23:55 43.28458 -76.18365 22005 ft 340 kts 194°
2026-05-05 23:55 43.26044 -76.18772 22423 ft 342 kts 194°
2026-05-05 23:55 43.23619 -76.19183 22650 ft 348 kts 194°
2026-05-05 23:55 43.21147 -76.19599 23030 ft 350 kts 194°
2026-05-05 23:56 43.18682 -76.20013 23425 ft 352 kts 194°
2026-05-05 23:56 43.16116 -76.20409 23759 ft 358 kts 189°
2026-05-05 23:56 43.13613 -76.20293 24077 ft 366 kts 185°
2026-05-05 23:56 43.11024 -76.20112 24503 ft 366 kts 185°
2026-05-05 23:57 43.08429 -76.19933 24814 ft 369 kts 185°
2026-05-05 23:57 43.05848 -76.19755 25206 ft 369 kts 185°
2026-05-05 23:57 43.03230 -76.19576 25613 ft 370 kts 185°
2026-05-05 23:57 43.00607 -76.19394 26015 ft 371 kts 185°
2026-05-05 23:58 42.97986 -76.19215 26388 ft 372 kts 185°
2026-05-05 23:58 42.95373 -76.19035 26842 ft 370 kts 185°
2026-05-05 23:58 42.92830 -76.18861 27317 ft 368 kts 185°
2026-05-05 23:58 42.90263 -76.18684 27768 ft 367 kts 185°
2026-05-05 23:59 42.87719 -76.18510 28295 ft 364 kts 185°
2026-05-05 23:59 42.85172 -76.18337 28636 ft 366 kts 185°
2026-05-05 23:59 42.82624 -76.18162 29154 ft 363 kts 185°
2026-05-05 23:59 42.80138 -76.17993 29621 ft 362 kts 185°
2026-05-06 00:00 42.77602 -76.17821 30019 ft 362 kts 185°
2026-05-06 00:00 42.75099 -76.17651 30400 ft 363 kts 186°
2026-05-06 00:00 42.72581 -76.17479 30802 ft 363 kts 186°
2026-05-06 00:00 42.70042 -76.17306 31270 ft 361 kts 185°
2026-05-06 00:01 42.67553 -76.17137 31738 ft 359 kts 186°
2026-05-06 00:01 42.65067 -76.16970 31995 ft 363 kts 186°
2026-05-06 00:01 42.62545 -76.16797 32446 ft 362 kts 186°
2026-05-06 00:01 42.60013 -76.16625 32892 ft 361 kts 186°
2026-05-06 00:02 42.54862 -76.16281 32970 ft 379 kts 185°
2026-05-06 00:02 42.52229 -76.16100 33232 ft 381 kts 186°
2026-05-06 00:02 42.49578 -76.15921 33618 ft 381 kts 186°
2026-05-06 00:03 42.46933 -76.15744 33852 ft 385 kts 186°
2026-05-06 00:03 42.44207 -76.15562 33857 ft 394 kts 185°
2026-05-06 00:03 42.38573 -76.15182 33851 ft 411 kts 185°
2026-05-06 00:04 42.32793 -76.14792 33844 ft 420 kts 185°
2026-05-06 00:04 42.26904 -76.14396 33852 ft 423 kts 185°
2026-05-06 00:05 42.18073 -76.13799 33842 ft 421 kts 184°
2026-05-06 00:06 42.12321 -76.12047 33844 ft 435 kts 166°
2026-05-06 00:06 42.06697 -76.09032 33837 ft 431 kts 166°
2026-05-06 00:07 42.01109 -76.06168 33827 ft 429 kts 166°
2026-05-06 00:07 41.95579 -76.03347 33827 ft 426 kts 166°
2026-05-06 00:08 41.90009 -76.00514 33829 ft 425 kts 166°
2026-05-06 00:08 41.84510 -75.97721 33829 ft 423 kts 166°
2026-05-06 00:09 41.78994 -75.94926 33836 ft 422 kts 166°
2026-05-06 00:09 41.73477 -75.92134 33831 ft 421 kts 166°
2026-05-06 00:10 41.68013 -75.89376 33846 ft 420 kts 166°
2026-05-06 00:10 41.62549 -75.86621 33837 ft 419 kts 166°
2026-05-06 00:11 41.57079 -75.83869 33851 ft 418 kts 166°
2026-05-06 00:11 41.51769 -75.81202 33837 ft 414 kts 166°
2026-05-06 00:11 41.49065 -75.79847 33344 ft 416 kts 166°
2026-05-06 00:12 41.46338 -75.78481 32890 ft 418 kts 166°
2026-05-06 00:12 41.43649 -75.77132 32660 ft 417 kts 166°
2026-05-06 00:12 41.40899 -75.75756 31958 ft 427 kts 165°
2026-05-06 00:12 41.38072 -75.74343 31262 ft 435 kts 165°
2026-05-06 00:13 41.35229 -75.72920 30996 ft 433 kts 165°
2026-05-06 00:13 41.32425 -75.71518 30782 ft 429 kts 165°
2026-05-06 00:13 41.29652 -75.70145 30378 ft 421 kts 166°
2026-05-06 00:13 41.26845 -75.69173 29638 ft 413 kts 176°
2026-05-06 00:14 41.24010 -75.68842 29001 ft 402 kts 185°
2026-05-06 00:14 41.21225 -75.68876 28413 ft 398 kts 185°
2026-05-06 00:14 41.18480 -75.68869 27732 ft 393 kts 185°
2026-05-06 00:14 41.15747 -75.68854 27170 ft 397 kts 184°
2026-05-06 00:15 41.13012 -75.68832 27046 ft 387 kts 184°
2026-05-06 00:15 41.10305 -75.68813 26490 ft 387 kts 184°
2026-05-06 00:15 41.07585 -75.68791 26016 ft 384 kts 184°
2026-05-06 00:15 41.04941 -75.68770 25551 ft 376 kts 184°
2026-05-06 00:16 41.02312 -75.68749 24767 ft 374 kts 183°
2026-05-06 00:16 40.99685 -75.68729 23967 ft 372 kts 183°
2026-05-06 00:16 40.97063 -75.68707 23478 ft 367 kts 183°
2026-05-06 00:16 40.94488 -75.68687 22996 ft 363 kts 183°
2026-05-06 00:17 40.91973 -75.68667 22497 ft 359 kts 183°
2026-05-06 00:17 40.89463 -75.68647 21840 ft 355 kts 184°
2026-05-06 00:17 40.87002 -75.68628 21159 ft 352 kts 184°
2026-05-06 00:17 40.84558 -75.68610 20471 ft 351 kts 184°
2026-05-06 00:18 40.82106 -75.68590 19962 ft 348 kts 184°
2026-05-06 00:18 40.79663 -75.68570 19496 ft 345 kts 184°
2026-05-06 00:18 40.77278 -75.68552 18977 ft 343 kts 184°
2026-05-06 00:18 40.74881 -75.68533 18495 ft 339 kts 184°
2026-05-06 00:19 40.72496 -75.68514 17935 ft 337 kts 184°
2026-05-06 00:19 40.70141 -75.68496 17379 ft 334 kts 184°
2026-05-06 00:19 40.67807 -75.68478 16803 ft 331 kts 184°
2026-05-06 00:19 40.65493 -75.68461 16194 ft 330 kts 184°
2026-05-06 00:20 40.63205 -75.68443 15621 ft 327 kts 185°
2026-05-06 00:20 40.60957 -75.68424 14970 ft 325 kts 184°
2026-05-06 00:20 40.58689 -75.67845 14217 ft 338 kts 162°
2026-05-06 00:20 40.56729 -75.66057 13553 ft 349 kts 137°
2026-05-06 00:21 40.55354 -75.63405 12913 ft 351 kts 124°
2026-05-06 00:21 40.54053 -75.60670 12296 ft 346 kts 127°
2026-05-06 00:21 40.52731 -75.58033 11672 ft 342 kts 128°
2026-05-06 00:21 40.51409 -75.55444 11078 ft 337 kts 128°
2026-05-06 00:22 40.50093 -75.52887 10462 ft 334 kts 128°
2026-05-06 00:22 40.48800 -75.50382 10047 ft 328 kts 128°
2026-05-06 00:22 40.47525 -75.47913 9996 ft 318 kts 129°
2026-05-06 00:22 40.46294 -75.45538 9988 ft 307 kts 129°
2026-05-06 00:23 40.45092 -75.43216 9995 ft 303 kts 129°
2026-05-06 00:23 40.43828 -75.40926 9988 ft 296 kts 139°
2026-05-06 00:23 40.42258 -75.39284 10004 ft 286 kts 156°
2026-05-06 00:23 40.40435 -75.38152 10017 ft 282 kts 164°
2026-05-06 00:24 40.38583 -75.37241 9919 ft 276 kts 167°
2026-05-06 00:24 40.36740 -75.36449 9651 ft 278 kts 168°
2026-05-06 00:24 40.34880 -75.35693 9426 ft 277 kts 168°
2026-05-06 00:24 40.33047 -75.34969 9251 ft 275 kts 170°
2026-05-06 00:25 40.31177 -75.34251 9065 ft 272 kts 171°
2026-05-06 00:25 40.29335 -75.33552 8794 ft 270 kts 171°
2026-05-06 00:25 40.27515 -75.32862 8445 ft 268 kts 171°
2026-05-06 00:25 40.25747 -75.32033 8060 ft 271 kts 163°
2026-05-06 00:26 40.24017 -75.31025 7669 ft 270 kts 163°
2026-05-06 00:26 40.22280 -75.30025 7307 ft 268 kts 163°
2026-05-06 00:26 40.20555 -75.29033 6971 ft 264 kts 164°
2026-05-06 00:26 40.18882 -75.28073 6610 ft 261 kts 164°
2026-05-06 00:27 40.17189 -75.27102 6216 ft 260 kts 165°
2026-05-06 00:27 40.15502 -75.26134 5872 ft 256 kts 165°
2026-05-06 00:27 40.13886 -75.25205 5719 ft 243 kts 165°
2026-05-06 00:27 40.12354 -75.24326 5689 ft 227 kts 166°
2026-05-06 00:28 40.10944 -75.23521 5527 ft 220 kts 166°
2026-05-06 00:28 40.09543 -75.22720 5241 ft 218 kts 166°
2026-05-06 00:28 40.08138 -75.21917 4942 ft 218 kts 166°
2026-05-06 00:28 40.06725 -75.21109 4681 ft 215 kts 165°
2026-05-06 00:29 40.05362 -75.20373 4411 ft 210 kts 172°
2026-05-06 00:29 40.03950 -75.19871 4125 ft 207 kts 173°
2026-05-06 00:29 40.02532 -75.19364 3860 ft 205 kts 173°
2026-05-06 00:29 40.01149 -75.18870 3584 ft 204 kts 173°
2026-05-06 00:30 39.99765 -75.18377 3305 ft 203 kts 173°
2026-05-06 00:30 39.98442 -75.17715 3030 ft 213 kts 153°
2026-05-06 00:30 39.97534 -75.16058 2757 ft 235 kts 115°
2026-05-06 00:30 39.97526 -75.13882 2505 ft 250 kts 78°
2026-05-06 00:31 39.98273 -75.11828 2253 ft 250 kts 73°
2026-05-06 00:31 39.98624 -75.09680 2120 ft 230 kts 103°
2026-05-06 00:31 39.98074 -75.07930 2118 ft 190 kts 145°
2026-05-06 00:31 39.97012 -75.07143 2154 ft 166 kts 168°
2026-05-06 00:32 39.95926 -75.06609 2119 ft 164 kts 168°
2026-05-06 00:32 39.94837 -75.06074 2111 ft 162 kts 169°
2026-05-06 00:32 39.93751 -75.05947 2114 ft 151 kts 194°
2026-05-06 00:32 39.92704 -75.06239 2115 ft 155 kts 197°
2026-05-06 00:33 39.91666 -75.06699 2106 ft 157 kts 217°
2026-05-06 00:33 39.90918 -75.07784 2127 ft 161 kts 228°
2026-05-06 00:33 39.90322 -75.09077 1993 ft 171 kts 240°
2026-05-06 00:33 39.89930 -75.10492 1819 ft 161 kts 245°
2026-05-06 00:34 39.89627 -75.11826 1607 ft 144 kts 246°
2026-05-06 00:34 39.89383 -75.13008 1440 ft 124 kts 245°
2026-05-06 00:34 39.89174 -75.14035 1275 ft 114 kts 244°
2026-05-06 00:34 39.88971 -75.15036 1135 ft 114 kts 245°
2026-05-06 00:35 39.88764 -75.16064 988 ft 118 kts 247°
2026-05-06 00:35 39.88554 -75.17122 836 ft 122 kts 246°
2026-05-06 00:35 39.88335 -75.18226 669 ft 126 kts 249°
2026-05-06 00:35 39.88112 -75.19355 519 ft 127 kts 248°
2026-05-06 00:36 39.87888 -75.20465 356 ft 125 kts 247°
2026-05-06 00:36 39.87665 -75.21589 165 ft 126 kts 248°
2026-05-06 00:36 39.87441 -75.22701 27 ft 120 kts 250°
2026-05-06 00:36 39.87264 -75.23600 17 ft 74 kts 251°
2026-05-06 00:37 39.87178 -75.24023 17 ft 27 kts 258°
2026-05-06 00:37 39.87162 -75.24230 17 ft 18 kts 265°
2026-05-06 00:37 39.87180 -75.24392 18 ft 18 kts 282°
2026-05-06 00:37 39.87225 -75.24521 18 ft 11 kts 324°
2026-05-06 00:38 39.87257 -75.24532 18 ft 4 kts 44°
2026-05-06 00:38 39.87273 -75.24480 18 ft 7 kts 74°
2026-05-06 00:38 39.87289 -75.24401 18 ft 10 kts 77°
2026-05-06 00:38 39.87307 -75.24308 17 ft 11 kts 75°
2026-05-06 00:39 39.87330 -75.24197 17 ft 13 kts 74°
2026-05-06 00:39 39.87355 -75.24071 17 ft 15 kts 75°
2026-05-06 00:39 39.87384 -75.23927 17 ft 16 kts 76°
2026-05-06 00:39 39.87426 -75.23780 17 ft 11 kts 67°
2026-05-06 00:40 39.87472 -75.23682 16 ft 13 kts 47°
2026-05-06 00:40 39.87548 -75.23592 16 ft 16 kts 29°
2026-05-06 00:40 39.87662 -75.23537 16 ft 18 kts 18°
2026-05-06 00:40 39.87773 -75.23488 16 ft 14 kts 19°
2026-05-06 00:41 39.87837 -75.23460 16 ft 10 kts 19°
2026-05-06 00:41 39.87915 -75.23438 16 ft 12 kts
2026-05-06 00:41 39.88011 -75.23469 16 ft 15 kts 339°
2026-05-06 00:41 39.88116 -75.23525 16 ft 17 kts 336°
2026-05-06 00:42 39.88218 -75.23573 16 ft 11 kts 338°
2026-05-06 00:42 39.88266 -75.23603 16 ft 7 kts 314°
2026-05-06 00:42 39.88259 -75.23658 16 ft 0 kts 233°
2026-05-06 00:42 39.88254 -75.23666 16 ft 0 kts 229°